Location: Innsbruck
(47.2657°N, 11.3914°E)
Time: 02:16:58
(UTC+02:00)

Envisat - Pass Details

Date: 09 February 2023
Orbit: 763 x 765 km, 98.2° (Epoch: 28 March)

Event Time Altitude Azimuth Distance (km) Brightness Sun altitude
Rises 04:37:32 0° 12° (NNE) 3,244 6.5 -29.5°
Reaches altitude 10° 04:39:51 10° 11° (N) 2,313 5.7 -29.2°
Enters shadow 04:42:59 38° 5° (N) 1,153 3.9 -28.6°
